Probability
0 0 0 0 0 0 0 0 0 0 6 35 58 42 19 3 0 0 0 0 0 0 0 0 0 0 0 0 0 0 0 0 0 0 0 0 0 0 0 0 0 0 0 0
0 0 0 0 0 0 0 0 0 0 6 32 48 39 6 3 0 0 0 0 0 0 0 0 0 0 0 0 0 0 0 0 0 0 0 0 0 0 0 0 0 0 0 0
0 0 0 0 0 0 0 0 0 0 3 35 39 23 3 3 3 0 0 0 0 0 0 0 0 0 0 0 0 0 0 0 0 0 0 0 0 0 0 0 0 0 0 0
0 0 0 0 0 0 0 0 0 0 16 32 6 0 0 0 0 0 0 0 0 0 0 0 0 0 0 0 0 0 0 0 0 0 0 0 0 0 0 0 0 0 0 0
0 0 0 0 0 0 0 0 0 3 0 0 0 0 0 0 0 0 0 0 0 0 0 0 0 0 0 0 0 0 0 0 0 0 0 0 0 0 0 0 0 0 0 0
0 0 0 0 0 0 0 0 0 0 0 0 0 0 0 0 0 0 0 0 0 0 0 0 0 0 0 0 0 0 0 0 0 0 0 0 0 0 0 0 0 0 0 0
0 0 0 0 0 0 0 0 0 0 0 0 0 0 0 0 0 0 0 0 0 0 0 0 0 0 0 0 0 0 0 0 0 0 0 0 0 0 0 0 0 0 0 0
0 0 0 0 0 0 0 0 0 0 0 0 0 0 0 0 0 0 0 0 0 0 0 0 0 0 0 0 0 0 0 0 0 0 0 0 0 0 0 0 0 0 0 0
0 0 0 0 0 0 0 0 0 0 0 0 0 0 0 0 0 0 0 0 0 0 0 0 0 0 0 0 0 0 0 0 0 0 0 0 0 0 0 0 0 0 0 0
0 0 0 0 0 0 0 0 0 0 0 0 0 0 0 0 0 0 0 0 0 0 0 0 0 0 0 0 0 0 0 0 0 0 0 0 0 0 0 0 0 0 0 0
0 0 0 0 0 0 0 0 0 0 0 0 0 0 0 0 0 0 0 0 0 0 0 0 0 0 0 0 0 0 0 0 0 0 0 0 0 0 0 0 0 0 0 0
0 0 0 0 0 0 0 0 0 0 0 0 0 0 0 0 0 0 0 0 0 0 0 0 0 0 0 0 0 0 0 0 0 0 0 0 0 0 0 0 0 0 0 0
0 0 0 0 0 0 0 0 0 0 0 0 0 0 0 0 0 0 0 0 0 0 0 0 0 0 0 0 0 0 0 0 0 0 0 0 0 0 0 0 0 0 0 0
0 0 0 0 0 0 0 0 0 0 0 0 0 0 0 0 0 0 0 0 0 0 0 0 0 0 0 0 0 0 0 0 0 0 0 0 0 0 0 0 0 0 0 0
0 0 0 0 0 0 0 0 0 0 0 0 0 0 0 0 0 0 0 0 0 0 0 0 0 0 0 0 0 0 0 0 0 0 0 0 0 0 0 0 0 0 0 0
0 0 0 0 0 0 0 0 0 0 0 0 0 0 0 0 0 0 0 0 0 0 0 0 0 0 0 0 0 0 0 0 0 0 0 0 0 0 0 0 0 0 0 0
0 0 0 0 0 0 0 0 0 0 0 0 0 0 0 0 0 0 0 0 0 0 0 0 0 0 0 0 0 0 0 0 0 0 0 0 0 0 0 0 0 0 0 0
0 0 0 0 0 0 0 0 0 0 0 0 0 0 0 0 0 0 0 0 0 0 0 0 0 0 0 0 0 0 0 0 0 0 0 0 0 0 0 0 0 0 0 0
0 0 0 0 0 0 0 0 0 0 0 0 0 0 0 0 0 0 0 0 0 0 0 0 0 0 0 0 0 0 0 0 0 0 0 0 0 0 0 0 0 0 0 0
0 0 0 0 0 0 0 0 0 0 0 0 0 0 0 0 0 0 0 0 0 0 0 0 0 0 0 0 0 0 0 0 0 0 0 0 0 0 0 0 0 0 0 0
0 0 0 0 0 0 0 0 0 0 0 0 0 0 0 0 0 0 0 0 0 0 0 0 0 0 0 0 0 0 0 0 0 0 0 0 0 0 0 0 0 0 0 0
0 0 0 0 0 0 0 0 0 0 0 0 0 0 0 0 0 0 0 0 0 0 0 0 0 0 0 0 0 0 0 0 0 0 0 0 0 0 0 0 0 0 0 0
0 0 0 0 0 0 0 0 0 0 0 0 0 0 0 0 0 0 0 0 0 0 0 0 0 0 0 0 0 0 0 0 0 0 0 0 0 0 0 0 0 0 0 0
0 0 0 0 0 0 0 0 0 0 0 0 0 0 0 0 0 0 0 0 0 0 0 0 0 0 0 0 0 0 0 0 0 0 0 0 0 0 0 0 0 0 0 0
0 0 0 0 0 0 0 0 0 0 0 0 0 0 0 0 0 0 0 0 0 0 0 0 0 0 0 0 0 0 0 0 0 0 0 0 0 0 0 0 0 0 0 0
0 0 0 0 0 0 0 0 0 0 0 0 0 0 0 0 0 0 0 0 0 0 0 0 0 0 0 0 0 0 0 0 0 0 0 0 0 0 0 0 0 0 0 0
0 0 0 0 0 0 0 0 0 0 0 0 0 0 0 0 0 0 0 0 0 0 0 0 0 0 0 0 0 0 0 0 0 0 0 0 0 0 0 0 0 0 0 0
Height
5746 5747 5749 5751 5753 5755 5758 5759 5762 5762 5762 5763 5765 5766 5767 5768 5768 5768 5768 5768 5768 5767 5766 5765 5764 5762 5761 5759 5757 5754 5752 5749 5746 5742 5739 5735 5731 5726 5722 5717 5713 5708 5704 5699
5739 5740 5742 5743 5745 5747 5749 5751 5753 5754 5754 5755 5756 5757 5758 5759 5759 5759 5758 5758 5757 5756 5755 5754 5752 5750 5748 5746 5744 5741 5739 5736 5733 5730 5725 5721 5717 5713 5708 5703 5699 5694 5689 5684
5732 5732 5734 5736 5737 5738 5740 5741 5744 5745 5745 5746 5747 5748 5749 5749 5748 5748 5747 5747 5746 5745 5744 5742 5740 5738 5736 5734 5732 5729 5726 5723 5720 5716 5711 5707 5702 5698 5693 5689 5684 5680 5675 5671
5724 5726 5727 5728 5728 5729 5731 5732 5734 5735 5735 5736 5737 5738 5738 5738 5738 5737 5736 5735 5734 5733 5732 5730 5728 5726 5724 5722 5719 5716 5713 5709 5706 5701 5697 5692 5688 5684 5679 5675 5670 5666 5661 5657
5718 5719 5719 5719 5720 5721 5723 5723 5724 5725 5726 5727 5728 5728 5728 5728 5728 5727 5726 5725 5724 5722 5721 5719 5717 5714 5712 5710 5707 5703 5700 5696 5691 5687 5683 5678 5674 5670 5666 5661 5657 5653 5648 5644
5713 5713 5713 5713 5713 5713 5716 5715 5715 5716 5717 5718 5718 5719 5719 5719 5718 5717 5716 5715 5714 5712 5710 5708 5706 5704 5701 5698 5694 5691 5687 5682 5678 5674 5669 5665 5661 5657 5652 5648 5644 5640 5636 5632
5708 5707 5706 5707 5707 5708 5710 5709 5708 5708 5709 5709 5710 5710 5710 5710 5709 5708 5707 5706 5704 5702 5700 5698 5695 5693 5689 5686 5682 5678 5674 5669 5665 5660 5656 5652 5648 5644 5640 5636 5632 5627 5624 5620
5704 5703 5704 5702 5702 5703 5703 5702 5702 5702 5702 5702 5702 5702 5702 5702 5701 5700 5699 5698 5696 5693 5691 5688 5685 5682 5678 5675 5671 5666 5662 5658 5653 5649 5645 5641 5636 5632 5628 5623 5619 5615 5611 5608
5701 5701 5698 5697 5697 5697 5697 5697 5697 5696 5696 5696 5696 5696 5695 5695 5694 5693 5691 5690 5687 5685 5682 5679 5675 5672 5668 5664 5660 5655 5651 5647 5642 5638 5634 5629 5625 5620 5616 5612 5607 5603 5600 5597
5696 5695 5694 5693 5693 5693 5692 5692 5692 5691 5691 5690 5690 5689 5688 5688 5687 5685 5684 5681 5679 5676 5673 5670 5666 5662 5659 5654 5650 5646 5641 5637 5632 5628 5623 5618 5614 5609 5605 5601 5597 5593 5590 5587
5693 5692 5691 5690 5689 5688 5688 5687 5686 5685 5684 5684 5683 5683 5682 5681 5680 5678 5676 5674 5671 5669 5665 5662 5658 5654 5650 5646 5642 5637 5632 5627 5623 5618 5613 5608 5604 5600 5596 5592 5589 5586 5582 5579
5691 5689 5688 5686 5685 5684 5683 5682 5681 5680 5679 5678 5678 5677 5677 5675 5674 5672 5670 5668 5665 5662 5659 5655 5652 5648 5643 5639 5634 5629 5624 5619 5614 5609 5604 5600 5596 5592 5588 5585 5582 5579 5576 5574
5687 5686 5684 5683 5681 5680 5679 5678 5676 5675 5674 5673 5673 5672 5672 5671 5669 5667 5665 5663 5660 5657 5653 5650 5645 5641 5636 5631 5626 5621 5616 5611 5606 5602 5598 5594 5590 5587 5584 5581 5578 5575 5573 5570
5685 5683 5681 5680 5679 5677 5676 5674 5672 5671 5670 5670 5669 5669 5668 5667 5666 5664 5662 5659 5656 5653 5649 5644 5640 5635 5630 5625 5620 5615 5610 5605 5601 5597 5593 5590 5586 5583 5581 5578 5576 5573 5571 5569
5682 5681 5680 5678 5677 5675 5674 5672 5671 5669 5668 5668 5668 5667 5667 5666 5664 5662 5660 5656 5653 5649 5645 5640 5635 5630 5625 5619 5615 5610 5606 5602 5598 5594 5591 5588 5585 5582 5580 5577 5575 5573 5572 5570
5681 5679 5678 5677 5676 5674 5673 5671 5670 5669 5668 5667 5667 5667 5666 5665 5663 5661 5658 5654 5651 5647 5642 5637 5632 5627 5621 5616 5612 5607 5604 5600 5596 5593 5590 5587 5585 5583 5581 5579 5577 5575 5574 5574
5679 5678 5677 5676 5675 5674 5672 5671 5670 5669 5668 5668 5668 5667 5666 5664 5662 5660 5657 5653 5650 5645 5641 5636 5630 5625 5620 5615 5611 5607 5603 5600 5597 5594 5591 5589 5587 5585 5583 5581 5580 5579 5578 5578
5678 5677 5676 5675 5674 5673 5672 5671 5671 5670 5669 5669 5668 5668 5666 5665 5662 5659 5656 5653 5649 5645 5640 5635 5630 5625 5620 5616 5612 5608 5604 5601 5598 5596 5594 5592 5590 5588 5587 5586 5584 5584 5583 5583
5676 5676 5675 5675 5674 5673 5673 5672 5672 5671 5671 5670 5670 5669 5667 5665 5663 5660 5657 5654 5650 5645 5640 5635 5631 5626 5622 5618 5614 5610 5607 5604 5602 5600 5598 5596 5594 5593 5592 5590 5589 5588 5588 5587
5675 5675 5674 5674 5674 5673 5673 5673 5673 5673 5672 5672 5671 5670 5668 5666 5664 5661 5658 5654 5651 5646 5642 5637 5633 5629 5625 5621 5617 5614 5611 5608 5606 5604 5602 5601 5599 5598 5596 5595 5594 5593 5592 5592
5673 5673 5673 5673 5673 5673 5674 5674 5674 5674 5674 5673 5672 5671 5670 5668 5666 5663 5660 5656 5653 5648 5644 5640 5635 5631 5627 5623 5620 5617 5614 5612 5610 5609 5607 5605 5604 5602 5601 5600 5598 5597 5596 5596
5671 5672 5672 5673 5673 5673 5674 5674 5675 5675 5675 5674 5674 5673 5671 5670 5668 5665 5662 5659 5655 5651 5647 5642 5638 5634 5630 5626 5623 5620 5618 5616 5614 5613 5611 5610 5608 5607 5605 5604 5602 5601 5600 5599
5669 5671 5671 5672 5672 5673 5674 5675 5675 5676 5676 5675 5675 5674 5673 5672 5670 5667 5665 5662 5658 5654 5650 5645 5641 5637 5633 5629 5625 5622 5620 5619 5618 5616 5615 5613 5612 5610 5609 5608 5606 5605 5604 5603
5667 5669 5670 5671 5672 5672 5674 5675 5675 5676 5676 5676 5676 5676 5675 5674 5672 5670 5667 5664 5661 5658 5653 5649 5644 5640 5636 5632 5628 5625 5623 5622 5621 5620 5618 5617 5616 5614 5613 5612 5610 5609 5608 5607
5665 5667 5668 5669 5670 5672 5673 5674 5675 5676 5677 5677 5677 5677 5676 5675 5674 5672 5670 5668 5665 5661 5658 5653 5649 5645 5640 5635 5631 5628 5626 5624 5624 5623 5622 5620 5619 5618 5617 5616 5615 5614 5613 5612
5662 5664 5666 5667 5669 5670 5672 5673 5674 5676 5677 5677 5678 5678 5678 5677 5676 5675 5673 5671 5668 5665 5662 5658 5654 5650 5645 5641 5636 5633 5630 5628 5627 5626 5625 5624 5623 5622 5621 5620 5620 5619 5618 5617
5660 5661 5663 5665 5667 5669 5670 5672 5673 5675 5676 5677 5678 5679 5679 5678 5678 5677 5676 5674 5672 5669 5666 5662 5659 5655 5651 5647 5643 5640 5637 5634 5633 5631 5630 5629 5628 5627 5626 5626 5625 5624 5624 5623
Wind_Speed
23 25 25 25 26 27 30 32 30 32 34 35 34 34 34 35 36 37 37 38 39 40 40 41 42 43 44 46 46 46 46 47 48 48 49 51 52 53 53 54 54 55 55 55
25 26 27 27 28 28 30 32 33 35 37 38 37 37 37 38 38 40 41 41 41 41 42 43 44 44 45 44 44 44 45 46 48 49 51 52 53 54 55 55 55 54 54 54
24 26 27 29 31 31 31 32 33 35 37 38 39 39 39 40 40 41 42 42 42 42 42 42 42 42 41 41 42 44 46 48 50 51 52 54 54 54 54 53 53 53 53 53
20 22 25 29 29 30 31 33 34 36 37 38 38 39 39 39 39 40 40 40 39 38 39 40 40 40 41 43 44 47 49 50 51 52 52 52 52 51 51 52 52 52 52 52
16 18 22 25 25 26 28 30 32 33 34 35 36 37 38 38 38 37 36 36 36 37 38 39 39 40 42 44 46 48 49 50 50 50 50 50 50 50 50 51 51 51 51 50
13 14 19 21 21 22 23 27 27 28 29 30 31 33 33 33 33 32 32 34 35 36 37 39 40 42 44 45 46 47 48 48 48 48 48 49 49 49 49 49 49 49 49 48
12 13 15 15 16 17 21 23 23 24 26 27 28 29 29 29 30 31 32 34 36 38 39 40 41 42 43 44 45 45 45 45 46 46 46 46 46 46 47 47 47 47 47 47
11 12 13 12 12 15 18 19 20 21 23 24 25 26 27 28 29 31 32 34 35 37 38 39 40 41 41 41 42 42 42 42 42 42 43 43 44 45 45 45 45 45 45 44
10 11 11 12 12 14 16 18 19 21 22 23 24 25 27 28 29 30 31 33 34 35 36 37 37 38 38 38 38 38 38 38 39 40 41 41 42 42 42 42 42 41 40 38
10 10 11 12 12 13 14 16 18 20 22 23 24 25 26 26 27 29 30 30 31 32 32 32 33 33 33 33 34 34 35 36 37 37 38 38 39 39 38 37 36 35 33 32
10 11 11 11 12 13 15 16 18 19 21 21 23 23 24 24 25 25 26 27 27 27 27 27 28 28 29 30 31 32 33 34 34 35 35 35 34 33 32 31 29 28 27 25
10 10 11 12 12 13 14 15 16 17 18 19 20 20 20 20 21 21 21 22 21 22 22 23 24 26 27 28 29 31 31 32 32 32 31 29 28 27 26 24 22 21 19 18
9 10 10 11 11 11 12 13 13 14 15 15 16 16 16 16 16 16 16 17 17 18 20 21 23 25 26 28 28 29 28 28 27 26 24 23 21 20 18 16 15 14 12 11
9 9 9 8 8 8 8 8 8 8 9 9 10 10 10 10 11 12 12 14 15 17 19 22 24 25 25 26 25 24 23 22 21 19 18 16 15 13 12 11 9 8 7 5
7 7 6 6 5 5 5 5 5 4 4 4 4 5 6 7 8 9 11 13 15 18 20 22 23 23 22 22 20 19 17 16 15 14 12 11 10 9 7 6 6 6 6 7
5 5 5 5 5 4 4 4 4 3 2 1 1 2 3 5 7 9 11 13 15 17 19 20 20 20 19 19 17 15 14 13 12 10 9 8 8 7 7 8 8 9 10 12
4 4 3 4 4 3 3 3 3 4 3 3 3 3 4 6 8 10 12 14 15 17 18 19 19 18 18 17 16 15 13 12 11 10 9 9 9 9 10 11 12 13 14 15
4 2 2 3 3 2 3 4 5 5 5 5 4 5 6 7 9 11 12 14 16 17 18 19 19 18 18 17 16 15 13 12 12 11 11 11 12 12 13 13 14 14 15 15
4 2 1 1 2 3 3 4 5 5 5 5 5 6 7 9 11 12 13 15 16 18 19 19 19 19 18 17 16 15 14 13 13 13 13 13 13 14 15 15 15 15 14 14
4 3 2 1 2 3 3 4 4 5 5 5 6 7 8 10 11 13 14 15 17 19 19 20 19 19 18 17 16 15 15 14 13 14 14 14 15 15 15 15 14 14 14 13
5 4 4 3 3 3 3 3 3 4 4 5 6 7 9 10 12 13 15 16 18 19 20 20 19 19 18 17 16 15 14 14 14 13 14 14 14 14 14 13 13 13 13 13
7 6 5 5 4 4 4 3 3 4 4 5 6 7 8 10 11 13 15 16 18 20 20 21 20 19 18 17 15 14 13 13 13 13 13 13 13 13 13 13 12 12 12 11
9 8 7 6 6 5 5 5 5 4 4 4 5 6 7 9 11 12 14 16 18 19 21 21 21 20 19 17 15 13 12 12 12 13 13 13 13 12 12 12 12 12 12 12
11 10 9 8 8 7 7 7 6 5 4 4 4 5 6 8 10 12 13 15 17 19 21 22 21 21 20 18 16 13 11 11 11 12 12 12 12 12 13 13 13 13 13 13
12 12 11 10 10 9 9 8 8 6 5 4 3 3 5 7 9 11 12 14 16 18 20 22 22 22 22 20 18 15 13 11 11 11 12 12 12 13 13 14 14 15 15 15
14 14 13 12 11 11 11 10 9 8 7 6 4 3 3 5 7 9 11 13 15 17 19 21 22 23 24 23 22 20 17 15 13 13 13 13 13 14 14 14 15 16 16 16
15 15 14 14 13 12 12 11 11 10 9 8 6 4 3 4 6 8 10 12 14 16 18 20 21 22 23 23 24 23 22 20 17 16 15 15 15 15 15 15 16 16 17 17
Wind_Direction
239 238 237 238 238 237 237 238 241 247 253 256 258 259 260 260 261 263 265 267 269 272 274 275 276 277 278 278 279 281 283 285 287 288 289 290 291 292 292 293 292 292 291 290
249 247 245 243 240 239 240 242 245 249 254 256 258 260 261 262 264 265 267 268 270 272 276 277 277 278 279 280 280 281 282 284 285 287 288 289 290 290 291 291 290 290 290 290
254 252 252 252 249 248 247 246 248 251 254 257 259 260 261 262 263 263 266 268 271 273 276 278 278 279 280 280 282 283 283 284 286 287 288 288 289 289 289 289 290 290 290 290
260 257 252 251 253 253 253 254 255 256 257 259 260 261 262 263 265 265 267 269 271 273 274 275 276 277 278 280 281 282 284 286 287 287 288 288 288 289 289 289 290 290 291 291
264 260 259 258 253 251 252 254 256 257 259 260 260 261 261 262 264 266 267 269 270 271 272 272 274 276 279 281 283 285 286 287 287 288 288 289 289 289 290 290 290 291 291 292
272 262 260 261 257 252 252 254 256 257 257 258 258 259 259 261 262 263 264 267 269 272 274 277 280 281 283 284 285 286 287 288 288 289 289 290 290 290 290 290 291 292 292 293
277 269 267 265 257 249 246 249 253 255 254 254 255 257 258 259 262 265 268 270 273 276 279 281 283 284 285 286 288 289 290 290 290 290 290 290 290 290 291 291 292 293 293 294
286 276 272 270 260 251 252 252 254 255 255 256 257 259 262 265 267 270 273 276 278 280 282 284 285 286 288 288 289 290 290 290 290 290 290 291 291 292 293 293 293 294 294 295
293 286 281 275 267 261 257 257 258 260 263 263 264 267 270 272 273 276 278 280 282 284 286 287 288 289 290 291 291 291 291 291 291 291 292 293 294 295 295 295 296 296 297 297
297 291 285 281 276 271 267 264 264 266 268 269 269 271 274 276 278 281 283 284 286 288 289 290 291 291 292 293 293 293 293 294 295 296 297 297 298 298 298 298 298 298 298 297
300 297 293 288 285 281 277 274 273 273 274 274 275 277 279 282 284 286 288 289 290 291 291 292 293 293 294 295 296 297 299 300 301 301 302 301 301 301 300 299 299 299 299 298
306 302 298 294 292 289 284 280 279 278 277 277 278 280 283 285 287 289 291 293 293 294 296 297 299 300 301 303 304 305 305 305 305 305 305 304 304 304 303 303 303 303 303 302
309 307 305 301 299 295 291 288 286 283 280 278 278 280 283 288 291 293 296 299 301 303 305 308 309 310 311 311 311 310 310 310 310 310 309 308 309 309 308 309 310 311 312 312
314 315 314 311 307 305 304 302 296 290 285 279 278 280 286 292 298 304 306 308 311 315 318 318 319 318 318 317 317 317 317 318 319 318 317 317 318 319 320 323 328 335 342 355
321 325 327 327 326 327 327 327 322 312 302 288 282 290 298 307 315 319 321 323 326 328 329 328 328 328 328 328 328 329 329 330 331 332 334 336 340 344 350 1 12 26 45 69
320 330 337 345 350 352 356 359 1 0 11 31 12 357 347 342 339 338 339 341 341 341 340 341 342 343 344 345 345 346 347 350 353 357 3 11 20 31 41 47 57 68 78 88
310 326 343 348 353 10 29 36 40 43 61 76 67 39 17 4 360 358 357 356 354 353 353 354 356 358 360 2 3 6 9 14 21 29 36 43 50 56 62 70 77 81 86 90
288 302 340 354 9 42 53 57 62 70 79 79 67 46 32 23 17 13 9 6 4 3 4 6 9 11 13 15 18 22 28 34 41 49 55 60 66 70 74 78 81 84 86 88
262 259 304 8 59 72 69 69 77 83 84 79 66 52 41 32 26 22 18 16 15 15 16 18 21 22 24 27 31 35 40 47 54 59 63 67 71 74 75 77 79 82 85 86
243 233 230 180 117 98 90 89 91 91 89 81 65 53 44 37 32 28 25 24 23 23 24 25 26 27 29 31 36 41 46 52 58 62 65 68 71 73 73 75 77 79 82 84
228 219 208 186 155 136 126 118 112 105 99 85 65 54 48 42 37 32 31 30 29 28 28 28 28 27 28 31 36 42 48 54 59 63 65 67 68 69 70 72 74 76 79 81
220 211 204 193 175 163 158 154 145 130 111 88 70 59 52 46 40 37 36 35 33 31 30 30 29 29 29 32 37 43 49 55 60 63 64 65 66 67 68 69 72 75 78 81
217 211 205 197 186 178 174 170 164 150 127 101 79 66 56 49 43 40 38 34 32 31 31 31 30 31 31 34 38 43 49 56 61 63 63 64 65 67 68 69 72 76 81 85
217 212 208 201 192 187 183 179 176 168 152 127 99 76 61 52 46 42 38 35 34 34 34 33 33 33 33 35 37 43 52 61 64 64 64 64 66 69 71 73 76 79 83 86
216 212 209 204 199 194 190 189 187 183 175 162 134 100 74 60 54 49 44 41 40 39 38 37 37 38 38 39 41 47 58 67 70 69 67 69 72 74 76 78 81 83 84 86
215 212 211 209 205 201 199 197 196 193 188 182 167 137 101 74 64 55 48 44 42 41 40 40 41 42 43 46 49 54 61 69 72 74 75 76 78 79 81 83 84 85 86 88
215 213 212 211 209 207 205 203 202 199 196 192 184 169 139 97 77 65 55 49 45 43 42 42 43 45 47 50 54 57 62 67 71 75 79 81 82 82 84 85 86 87 89 90